Location: Staunton
(38.1490°N, 79.0720°W)
Time: 22:53:11
(UTC-05:00)

ISS - Pass Details

Date: 31 January 2021
Orbit: 417 x 422 km, 51.6° (Epoch: 07 March)

Event Time Altitude Azimuth Distance (km) Brightness Sun altitude
Rises 18:16:48 0° 318° (NW) 2,373 0.4 -8.0°
Reaches altitude 10° 18:20:26 10° 359° (N) 1,508 -1.1 -8.7°
Maximum altitude 18:21:17 11° 14° (NNE) 1,464 -1.3 -8.8°
Drops below altitude 10° 18:22:09 10° 28° (NNE) 1,508 -1.3 -9.0°
Enters shadow 18:22:56 - 40° (NE) 1,617 -1.3 -9.2°
